Time,TemperatureF,DewpointF,PressureIn,WindDirection,WindDirectionDegrees,WindSpeedMPH,WindSpeedGustMPH,Humidity,HourlyPrecipIn,Conditions,Clouds,dailyrainin,SolarRadiationWatts/m^2,SoftwareType,DateUTC
2013-10-02 00:02:00,43.7,40.4,29.94,SW,225,0.0,0.0,88,0.00,CLR,,0.00,0.0,WeatherDisplay:10.37,2013-10-02 05:02:00,
2013-10-02 00:07:00,43.6,40.3,29.95,SW,225,0.0,0.0,88,0.00,CLR,,0.00,0.0,WeatherDisplay:10.37,2013-10-02 05:07:00,
2013-10-02 00:12:00,46.3,42.0,29.93,SW,225,0.0,0.0,85,0.00,CLR,,0.00,0.0,WeatherDisplay:10.37,2013-10-02 05:12:00,
2013-10-02 00:17:00,46.3,42.0,29.93,SW,225,0.0,0.0,85,0.00,CLR,,0.00,0.0,WeatherDisplay:10.37,2013-10-02 05:17:00,
2013-10-02 00:22:00,43.1,40.1,29.95,SW,225,0.0,0.0,89,0.00,CLR,,0.00,0.0,WeatherDisplay:10.37,2013-10-02 05:22:00,
2013-10-02 00:27:00,43.1,40.1,29.95,SW,225,0.0,0.0,89,0.00,CLR,,0.00,0.0,WeatherDisplay:10.37,2013-10-02 05:27:00,
2013-10-02 00:32:00,42.7,39.7,29.96,SW,225,0.0,0.0,89,0.00,CLR,,0.00,0.0,WeatherDisplay:10.37,2013-10-02 05:32:00,
2013-10-02 00:37:00,43.1,40.1,29.95,SW,225,0.0,0.0,89,0.00,CLR,,0.00,0.0,WeatherDisplay:10.37,2013-10-02 05:37:00,
2013-10-02 00:42:00,42.4,39.7,29.96,SW,225,0.0,0.0,90,0.00,CLR,,0.00,0.0,WeatherDisplay:10.37,2013-10-02 05:42:00,
2013-10-02 00:47:00,42.3,39.6,29.96,SW,225,0.0,0.0,90,0.00,CLR,,0.00,0.0,WeatherDisplay:10.37,2013-10-02 05:47:00,
2013-10-02 00:52:00,42.2,39.5,29.96,SW,225,0.0,0.0,90,0.00,CLR,,0.00,0.0,WeatherDisplay:10.37,2013-10-02 05:52:00,
2013-10-02 00:57:00,42.1,39.7,29.96,SW,225,0.0,0.0,91,0.00,CLR,,0.00,0.0,WeatherDisplay:10.37,2013-10-02 05:57:00,
2013-10-02 01:02:00,42.1,39.7,29.96,SW,225,0.0,0.0,91,0.00,CLR,,0.00,0.0,WeatherDisplay:10.37,2013-10-02 06:02:00,
2013-10-02 01:07:00,42.1,39.7,29.96,SW,225,0.0,0.0,91,0.00,CLR,,0.00,0.0,WeatherDisplay:10.37,2013-10-02 06:07:00,
2013-10-02 01:12:00,41.6,39.2,29.97,SW,225,0.0,0.0,91,0.00,CLR,,0.00,0.0,WeatherDisplay:10.37,2013-10-02 06:12:00,
2013-10-02 01:17:00,41.5,39.1,29.97,SW,225,0.0,0.0,91,0.00,CLR,,0.00,0.0,WeatherDisplay:10.37,2013-10-02 06:17:00,
2013-10-02 01:22:00,42.1,39.7,29.96,SW,225,0.0,0.0,91,0.00,CLR,,0.00,0.0,WeatherDisplay:10.37,2013-10-02 06:22:00,
2013-10-02 01:27:00,41.3,39.2,29.97,SW,225,0.0,0.0,92,0.00,CLR,,0.00,0.0,WeatherDisplay:10.37,2013-10-02 06:27:00,
2013-10-02 01:32:00,42.1,39.7,29.96,SW,225,0.0,0.0,91,0.00,CLR,,0.00,0.0,WeatherDisplay:10.37,2013-10-02 06:32:00,
2013-10-02 01:37:00,42.1,39.7,29.96,SW,225,0.0,0.0,91,0.00,CLR,,0.00,0.0,WeatherDisplay:10.37,2013-10-02 06:37:00,
2013-10-02 01:42:00,42.1,39.7,29.96,SW,225,0.0,0.0,91,0.00,CLR,,0.00,0.0,WeatherDisplay:10.37,2013-10-02 06:42:00,
2013-10-02 01:47:00,42.1,39.7,29.96,SW,225,0.0,0.0,91,0.00,CLR,,0.00,0.0,WeatherDisplay:10.37,2013-10-02 06:47:00,
2013-10-02 01:52:00,42.1,39.7,29.96,SW,225,0.0,0.0,91,0.00,CLR,,0.00,0.0,WeatherDisplay:10.37,2013-10-02 06:52:00,
2013-10-02 01:57:00,40.5,38.4,29.98,SW,225,0.0,0.0,92,0.00,CLR,,0.00,0.0,WeatherDisplay:10.37,2013-10-02 06:57:00,
2013-10-02 02:02:00,42.1,39.7,29.96,SW,225,0.0,0.0,91,0.00,CLR,,0.00,0.0,WeatherDisplay:10.37,2013-10-02 07:02:00,
2013-10-02 02:07:00,42.1,39.7,29.96,SW,225,0.0,0.0,91,0.00,CLR,,0.00,0.0,WeatherDisplay:10.37,2013-10-02 07:07:00,
2013-10-02 02:12:00,42.1,39.7,29.96,SW,225,0.0,0.0,91,0.00,CLR,,0.00,0.0,WeatherDisplay:10.37,2013-10-02 07:12:00,
2013-10-02 02:17:00,39.7,37.6,29.99,SW,225,0.0,0.0,92,0.00,CLR,,0.00,0.0,WeatherDisplay:10.37,2013-10-02 07:17:00,
2013-10-02 02:22:00,39.5,37.4,29.99,SW,225,0.0,0.0,92,0.00,CLR,,0.00,0.0,WeatherDisplay:10.37,2013-10-02 07:22:00,
2013-10-02 02:27:00,39.5,37.4,29.99,SW,225,0.0,0.0,92,0.00,CLR,,0.00,0.0,WeatherDisplay:10.37,2013-10-02 07:27:00,
2013-10-02 02:32:00,39.3,37.2,30.00,SW,225,0.0,0.0,92,0.00,CLR,,0.00,0.0,WeatherDisplay:10.37,2013-10-02 07:32:00,
2013-10-02 02:37:00,39.2,37.3,30.00,SW,225,0.0,0.0,93,0.00,CLR,,0.00,0.0,WeatherDisplay:10.37,2013-10-02 07:37:00,
2013-10-02 02:42:00,39.5,37.4,29.99,SW,225,0.0,0.0,92,0.00,CLR,,0.00,0.0,WeatherDisplay:10.37,2013-10-02 07:42:00,
2013-10-02 02:47:00,39.1,37.2,30.00,SW,225,0.0,0.0,93,0.00,CLR,,0.00,0.0,WeatherDisplay:10.37,2013-10-02 07:47:00,
2013-10-02 02:52:00,39.5,37.4,29.99,SW,225,0.0,0.0,92,0.00,CLR,,0.00,0.0,WeatherDisplay:10.37,2013-10-02 07:52:00,
2013-10-02 02:57:00,39.5,37.4,29.99,SW,225,0.0,0.0,92,0.00,CLR,,0.00,0.0,WeatherDisplay:10.37,2013-10-02 07:57:00,
2013-10-02 03:02:00,38.8,36.9,30.00,SW,225,0.0,0.0,93,0.00,CLR,,0.00,0.0,WeatherDisplay:10.37,2013-10-02 08:02:00,
2013-10-02 03:07:00,39.5,37.4,29.99,SW,225,0.0,0.0,92,0.00,CLR,,0.00,0.0,WeatherDisplay:10.37,2013-10-02 08:07:00,
2013-10-02 03:12:00,38.7,36.9,30.00,SW,225,0.0,0.0,93,0.00,CLR,,0.00,0.0,WeatherDisplay:10.37,2013-10-02 08:12:00,
2013-10-02 03:17:00,38.6,36.8,30.00,SW,225,0.0,0.0,93,0.00,CLR,,0.00,0.0,WeatherDisplay:10.37,2013-10-02 08:17:00,
2013-10-02 03:22:00,38.8,36.9,30.00,SW,225,0.0,0.0,93,0.00,CLR,,0.00,0.0,WeatherDisplay:10.37,2013-10-02 08:22:00,
2013-10-02 03:28:00,38.8,36.9,30.00,SW,225,0.0,0.0,93,0.00,CLR,,0.00,0.0,WeatherDisplay:10.37,2013-10-02 08:28:00,
2013-10-02 03:33:00,38.8,36.9,30.00,SW,225,0.0,0.0,93,0.00,CLR,,0.00,0.0,WeatherDisplay:10.37,2013-10-02 08:33:00,
2013-10-02 03:38:00,38.2,36.4,30.00,SW,225,0.0,0.0,93,0.00,CLR,,0.00,0.0,WeatherDisplay:10.37,2013-10-02 08:38:00,
2013-10-02 03:43:00,38.1,36.3,30.00,SW,225,0.0,0.0,93,0.00,CLR,,0.00,0.0,WeatherDisplay:10.37,2013-10-02 08:43:00,
2013-10-02 03:48:00,38.8,36.9,30.00,SW,225,0.0,0.0,93,0.00,CLR,,0.00,0.0,WeatherDisplay:10.37,2013-10-02 08:48:00,
2013-10-02 03:53:00,38.0,36.2,30.00,SW,225,0.0,0.0,93,0.00,CLR,,0.00,0.0,WeatherDisplay:10.37,2013-10-02 08:53:00,
2013-10-02 03:58:00,38.8,36.9,30.00,SW,225,0.0,0.0,93,0.00,CLR,,0.00,0.0,WeatherDisplay:10.37,2013-10-02 08:58:00,
2013-10-02 04:03:00,38.0,36.2,30.00,SW,225,0.0,0.0,93,0.00,CLR,,0.00,0.0,WeatherDisplay:10.37,2013-10-02 09:03:00,
2013-10-02 04:08:00,38.0,36.2,30.00,SW,225,0.0,0.0,93,0.00,CLR,,0.00,0.0,WeatherDisplay:10.37,2013-10-02 09:08:00,
2013-10-02 04:13:00,38.8,36.9,30.00,SW,225,0.0,0.0,93,0.00,CLR,,0.00,0.0,WeatherDisplay:10.37,2013-10-02 09:13:00,
2013-10-02 04:18:00,37.6,36.0,30.01,SW,225,0.0,0.0,94,0.00,CLR,,0.00,0.0,WeatherDisplay:10.37,2013-10-02 09:18:00,
2013-10-02 04:23:00,37.6,36.0,30.01,SW,225,0.0,0.0,94,0.00,CLR,,0.00,0.0,WeatherDisplay:10.37,2013-10-02 09:23:00,
2013-10-02 04:28:00,37.3,35.7,30.01,SW,225,0.0,0.0,94,0.00,CLR,,0.00,0.0,WeatherDisplay:10.37,2013-10-02 09:28:00,
2013-10-02 04:33:00,37.6,36.0,30.01,SW,225,0.0,0.0,94,0.00,CLR,,0.00,0.0,WeatherDisplay:10.37,2013-10-02 09:33:00,
2013-10-02 04:38:00,37.1,35.5,30.01,SW,225,0.0,0.0,94,0.00,CLR,,0.00,0.0,WeatherDisplay:10.37,2013-10-02 09:38:00,
2013-10-02 04:43:00,37.0,35.4,30.01,SW,225,0.0,0.0,94,0.00,CLR,,0.00,0.0,WeatherDisplay:10.37,2013-10-02 09:43:00,
2013-10-02 04:48:00,36.8,35.2,30.02,SW,225,0.0,0.0,94,0.00,CLR,,0.00,0.0,WeatherDisplay:10.37,2013-10-02 09:48:00,
2013-10-02 04:53:00,36.6,35.0,30.02,SW,225,0.0,0.0,94,0.00,CLR,,0.00,0.0,WeatherDisplay:10.37,2013-10-02 09:53:00,
2013-10-02 04:58:00,36.6,35.0,30.02,SW,225,0.0,0.0,94,0.00,CLR,,0.00,0.0,WeatherDisplay:10.37,2013-10-02 09:58:00,
2013-10-02 05:03:00,36.5,34.9,30.02,SW,225,0.0,0.0,94,0.00,CLR,,0.00,0.0,WeatherDisplay:10.37,2013-10-02 10:03:00,
2013-10-02 05:08:00,36.4,34.8,30.02,SW,225,0.0,0.0,94,0.00,CLR,,0.00,0.0,WeatherDisplay:10.37,2013-10-02 10:08:00,
2013-10-02 05:13:00,36.2,34.6,30.03,SW,225,0.0,0.0,94,0.00,CLR,,0.00,0.0,WeatherDisplay:10.37,2013-10-02 10:13:00,
2013-10-02 05:18:00,36.1,34.5,30.03,SW,225,0.0,0.0,94,0.00,CLR,,0.00,0.0,WeatherDisplay:10.37,2013-10-02 10:18:00,
2013-10-02 05:23:00,36.2,34.6,30.03,SW,225,0.0,0.0,94,0.00,CLR,,0.00,0.0,WeatherDisplay:10.37,2013-10-02 10:23:00,
2013-10-02 05:28:00,36.0,34.4,30.03,SW,225,0.0,0.0,94,0.00,CLR,,0.00,0.0,WeatherDisplay:10.37,2013-10-02 10:28:00,
2013-10-02 05:33:00,35.9,34.3,30.03,SW,225,0.0,0.0,94,0.00,CLR,,0.00,0.0,WeatherDisplay:10.37,2013-10-02 10:33:00,
2013-10-02 05:38:00,36.2,34.6,30.03,SW,225,0.0,0.0,94,0.00,CLR,,0.00,0.0,WeatherDisplay:10.37,2013-10-02 10:38:00,
2013-10-02 05:43:00,36.2,34.6,30.03,SW,225,0.0,0.0,94,0.00,CLR,,0.00,0.0,WeatherDisplay:10.37,2013-10-02 10:43:00,
2013-10-02 05:48:00,36.2,34.6,30.03,SW,225,0.0,0.0,94,0.00,CLR,,0.00,0.0,WeatherDisplay:10.37,2013-10-02 10:48:00,
2013-10-02 05:53:00,35.4,33.8,30.04,SW,225,0.0,0.0,94,0.00,CLR,,0.00,0.0,WeatherDisplay:10.37,2013-10-02 10:53:00,
2013-10-02 05:58:00,35.5,33.9,30.04,SW,225,0.0,0.0,94,0.00,CLR,,0.00,0.0,WeatherDisplay:10.37,2013-10-02 10:58:00,
2013-10-02 06:03:00,35.2,33.6,30.04,SW,225,0.0,0.0,94,0.00,CLR,,0.00,0.0,WeatherDisplay:10.37,2013-10-02 11:03:00,
2013-10-02 06:08:00,35.5,33.9,30.04,SW,225,0.0,0.0,94,0.00,CLR,,0.00,0.0,WeatherDisplay:10.37,2013-10-02 11:08:00,
2013-10-02 06:13:00,35.1,33.5,30.05,SW,225,0.0,0.0,94,0.00,CLR,,0.00,0.0,WeatherDisplay:10.37,2013-10-02 11:13:00,
2013-10-02 06:18:00,35.5,33.9,30.04,SW,225,0.0,0.0,94,0.00,CLR,,0.00,0.0,WeatherDisplay:10.37,2013-10-02 11:18:00,
2013-10-02 06:23:00,35.0,33.4,30.05,SW,225,0.0,0.0,94,0.00,CLR,,0.00,0.0,WeatherDisplay:10.37,2013-10-02 11:23:00,
2013-10-02 06:28:00,34.9,33.3,30.05,SW,225,0.0,0.0,94,0.00,CLR,,0.00,0.0,WeatherDisplay:10.37,2013-10-02 11:28:00,
2013-10-02 06:33:00,34.8,33.2,30.05,SW,225,0.0,0.0,94,0.00,CLR,,0.00,0.0,WeatherDisplay:10.37,2013-10-02 11:33:00,
2013-10-02 06:38:00,35.5,33.9,30.04,SW,225,0.0,0.0,94,0.00,CLR,,0.00,0.0,WeatherDisplay:10.37,2013-10-02 11:38:00,
2013-10-02 06:43:00,35.5,33.9,30.04,SW,225,0.0,0.0,94,0.00,CLR,,0.00,0.0,WeatherDisplay:10.37,2013-10-02 11:43:00,
2013-10-02 06:48:00,35.5,33.9,30.04,SW,225,0.0,0.0,94,0.00,CLR,,0.00,0.0,WeatherDisplay:10.37,2013-10-02 11:48:00,
2013-10-02 06:53:00,35.5,33.9,30.04,SW,225,0.0,0.0,94,0.00,CLR,,0.00,0.0,WeatherDisplay:10.37,2013-10-02 11:53:00,
2013-10-02 06:58:00,34.3,32.8,30.04,SW,225,0.0,0.0,94,0.00,CLR,,0.00,0.0,WeatherDisplay:10.37,2013-10-02 11:58:00,
2013-10-02 07:03:00,34.4,32.9,30.04,SW,225,0.0,0.0,94,0.00,CLR,,0.00,0.0,WeatherDisplay:10.37,2013-10-02 12:03:00,
2013-10-02 07:08:00,34.1,32.6,30.05,SW,225,0.0,0.0,94,0.00,CLR,,0.00,0.0,WeatherDisplay:10.37,2013-10-02 12:08:00,
2013-10-02 07:13:00,34.4,32.9,30.04,SW,225,0.0,0.0,94,0.00,CLR,,0.00,0.0,WeatherDisplay:10.37,2013-10-02 12:13:00,
2013-10-02 07:18:00,34.0,32.5,30.05,SW,225,0.0,0.0,94,0.00,CLR,,0.00,5.0,WeatherDisplay:10.37,2013-10-02 12:18:00,
2013-10-02 07:23:00,34.4,32.9,30.04,SW,225,0.0,0.0,94,0.00,CLR,,0.00,0.0,WeatherDisplay:10.37,2013-10-02 12:23:00,
2013-10-02 07:28:00,33.9,32.4,30.06,SW,225,0.0,0.0,94,0.00,CLR,,0.00,7.0,WeatherDisplay:10.37,2013-10-02 12:28:00,
2013-10-02 07:33:00,33.9,32.6,30.06,SW,225,0.0,0.0,95,0.00,CLR,,0.00,9.0,WeatherDisplay:10.37,2013-10-02 12:33:00,
2013-10-02 07:38:00,34.0,32.7,30.06,SW,225,0.0,0.0,95,0.00,CLR,,0.00,9.0,WeatherDisplay:10.37,2013-10-02 12:38:00,
2013-10-02 07:43:00,34.0,32.7,30.06,SW,225,0.0,0.0,95,0.00,CLR,,0.00,11.0,WeatherDisplay:10.37,2013-10-02 12:43:00,
2013-10-02 07:48:00,34.4,32.9,30.04,SW,225,0.0,0.0,94,0.00,CLR,,0.00,0.0,WeatherDisplay:10.37,2013-10-02 12:48:00,
2013-10-02 07:53:00,34.4,32.9,30.04,SW,225,0.0,0.0,94,0.00,CLR,,0.00,0.0,WeatherDisplay:10.37,2013-10-02 12:53:00,
2013-10-02 07:58:00,34.5,33.2,30.07,SW,225,0.0,0.0,95,0.00,CLR,,0.00,12.0,WeatherDisplay:10.37,2013-10-02 12:58:00,
2013-10-02 08:03:00,34.4,32.9,30.04,SW,225,0.0,0.0,94,0.00,CLR,,0.00,0.0,WeatherDisplay:10.37,2013-10-02 13:03:00,
2013-10-02 08:08:00,34.9,33.9,30.07,SW,225,0.0,0.0,96,0.00,CLR,,0.00,16.0,WeatherDisplay:10.37,2013-10-02 13:08:00,
2013-10-02 08:13:00,35.2,34.2,30.07,SW,225,0.0,0.0,96,0.00,CLR,,0.00,18.0,WeatherDisplay:10.37,2013-10-02 13:13:00,
2013-10-02 08:18:00,34.4,32.9,30.04,SW,225,0.0,0.0,94,0.00,CLR,,0.00,0.0,WeatherDisplay:10.37,2013-10-02 13:18:00,
2013-10-02 08:23:00,34.4,32.9,30.04,SW,225,0.0,0.0,94,0.00,CLR,,0.00,0.0,WeatherDisplay:10.37,2013-10-02 13:23:00,
2013-10-02 08:28:00,34.4,32.9,30.04,SW,225,0.0,0.0,94,0.00,CLR,,0.00,0.0,WeatherDisplay:10.37,2013-10-02 13:28:00,
2013-10-02 08:33:00,34.4,32.9,30.04,SW,225,0.0,0.0,94,0.00,CLR,,0.00,0.0,WeatherDisplay:10.37,2013-10-02 13:33:00,
2013-10-02 08:38:00,37.6,36.6,30.07,SW,225,0.0,0.0,96,0.00,CLR,,0.00,19.0,WeatherDisplay:10.37,2013-10-02 13:38:00,
2013-10-02 08:43:00,34.4,32.9,30.04,SW,225,0.0,0.0,94,0.00,CLR,,0.00,0.0,WeatherDisplay:10.37,2013-10-02 13:43:00,
2013-10-02 08:49:00,38.6,37.8,30.07,SW,225,0.0,0.0,97,0.00,CLR,,0.00,32.0,WeatherDisplay:10.37,2013-10-02 13:49:00,
2013-10-02 08:54:00,34.4,32.9,30.04,SW,225,0.0,0.0,94,0.00,CLR,,0.00,0.0,WeatherDisplay:10.37,2013-10-02 13:54:00,
2013-10-02 08:59:00,40.2,39.4,30.07,SW,225,0.0,0.0,97,0.00,CLR,,0.00,35.0,WeatherDisplay:10.37,2013-10-02 13:59:00,
2013-10-02 09:04:00,34.4,32.9,30.04,SW,225,0.0,0.0,94,0.00,CLR,,0.00,0.0,WeatherDisplay:10.37,2013-10-02 14:04:00,
2013-10-02 09:09:00,34.4,32.9,30.04,SW,225,0.0,0.0,94,0.00,CLR,,0.00,0.0,WeatherDisplay:10.37,2013-10-02 14:09:00,
2013-10-02 09:14:00,42.2,41.4,30.08,SW,225,0.0,0.0,97,0.00,CLR,,0.00,23.0,WeatherDisplay:10.37,2013-10-02 14:14:00,
2013-10-02 09:19:00,43.0,42.2,30.08,SW,225,0.0,0.0,97,0.00,CLR,,0.00,42.0,WeatherDisplay:10.37,2013-10-02 14:19:00,
2013-10-02 09:24:00,43.7,42.9,30.08,SSW,202,1.1,1.1,97,0.00,CLR,,0.00,139.0,WeatherDisplay:10.37,2013-10-02 14:24:00,
2013-10-02 09:29:00,44.6,44.1,30.08,SSW,202,0.0,0.0,98,0.00,CLR,,0.00,23.0,WeatherDisplay:10.37,2013-10-02 14:29:00,
2013-10-02 09:34:00,43.7,42.9,30.08,SSW,201,2.3,0.0,97,0.00,CLR,,0.00,88.0,WeatherDisplay:10.37,2013-10-02 14:34:00,
2013-10-02 09:39:00,46.0,45.5,30.08,SSE,159,1.1,1.1,98,0.00,CLR,,0.00,32.0,WeatherDisplay:10.37,2013-10-02 14:39:00,
2013-10-02 09:44:00,46.9,46.1,30.07,SSE,159,0.0,0.0,97,0.00,CLR,,0.00,32.0,WeatherDisplay:10.37,2013-10-02 14:44:00,
2013-10-02 09:49:00,43.7,42.9,30.08,SSW,201,2.3,0.0,97,0.00,CLR,,0.00,88.0,WeatherDisplay:10.37,2013-10-02 14:49:00,
2013-10-02 09:54:00,43.7,42.9,30.08,SSW,201,2.3,0.0,97,0.00,CLR,,0.00,88.0,WeatherDisplay:10.37,2013-10-02 14:54:00,
2013-10-02 09:59:00,49.9,45.3,30.08,SSW,209,0.0,0.0,84,0.00,CLR,,0.00,26.0,WeatherDisplay:10.37,2013-10-02 14:59:00,
2013-10-02 10:04:00,50.0,45.4,30.08,SSW,209,0.0,1.4,84,0.00,CLR,,0.00,26.0,WeatherDisplay:10.37,2013-10-02 15:04:00,
2013-10-02 10:09:00,51.7,46.7,30.08,SE,146,2.3,2.3,83,0.00,CLR,,0.00,28.0,WeatherDisplay:10.37,2013-10-02 15:09:00,
2013-10-02 10:14:00,50.0,45.4,30.08,SSW,209,0.0,1.4,84,0.00,CLR,,0.00,26.0,WeatherDisplay:10.37,2013-10-02 15:14:00,
2013-10-02 10:19:00,53.6,45.2,30.08,SE,144,0.0,0.0,73,0.00,CLR,,0.00,32.0,WeatherDisplay:10.37,2013-10-02 15:19:00,
2013-10-02 10:24:00,55.0,45.4,30.08,South,188,1.1,1.1,70,0.00,CLR,,0.00,30.0,WeatherDisplay:10.37,2013-10-02 15:24:00,
2013-10-02 10:29:00,53.6,45.2,30.08,SE,144,0.0,0.0,73,0.00,CLR,,0.00,32.0,WeatherDisplay:10.37,2013-10-02 15:29:00,
2013-10-02 10:33:00,55.6,44.8,30.08,SSE,155,0.0,1.6,67,0.00,CLR,,0.00,32.0,WeatherDisplay:10.37,2013-10-02 15:33:00,
2013-10-02 10:38:00,57.1,45.8,30.08,South,181,0.0,0.0,66,0.00,CLR,,0.00,33.0,WeatherDisplay:10.37,2013-10-02 15:38:00,
2013-10-02 10:43:00,57.1,45.8,30.08,South,181,0.0,0.0,66,0.00,CLR,,0.00,33.0,WeatherDisplay:10.37,2013-10-02 15:43:00,
2013-10-02 10:48:00,59.4,42.3,30.08,SSW,213,2.3,2.3,53,0.00,CLR,,0.00,37.0,WeatherDisplay:10.37,2013-10-02 15:48:00,
2013-10-02 10:53:00,60.2,43.0,30.08,SE,134,2.3,2.3,53,0.00,CLR,,0.00,47.0,WeatherDisplay:10.37,2013-10-02 15:53:00,
2013-10-02 10:58:00,61.1,42.8,30.08,WSW,256,3.5,3.5,51,0.00,CLR,,0.00,49.0,WeatherDisplay:10.37,2013-10-02 15:58:00,
2013-10-02 11:03:00,57.1,45.8,30.08,South,181,0.0,0.0,66,0.00,CLR,,0.00,33.0,WeatherDisplay:10.37,2013-10-02 16:03:00,
2013-10-02 11:08:00,62.2,41.2,30.08,SSE,148,3.5,3.5,46,0.00,CLR,,0.00,44.0,WeatherDisplay:10.37,2013-10-02 16:08:00,
2013-10-02 11:13:00,63.0,43.5,30.08,SW,234,4.6,4.6,49,0.00,CLR,,0.00,49.0,WeatherDisplay:10.37,2013-10-02 16:13:00,
2013-10-02 11:18:00,57.1,45.8,30.08,South,181,0.0,0.0,66,0.00,CLR,,0.00,33.0,WeatherDisplay:10.37,2013-10-02 16:18:00,
2013-10-02 11:23:00,64.3,42.5,30.08,SE,135,3.5,3.5,45,0.00,CLR,,0.00,615.0,WeatherDisplay:10.37,2013-10-02 16:23:00,
2013-10-02 11:28:00,65.2,41.5,30.07,SE,132,2.3,2.3,42,0.00,CLR,,0.00,624.0,WeatherDisplay:10.37,2013-10-02 16:28:00,
2013-10-02 11:33:00,57.1,45.8,30.08,South,181,0.0,0.0,66,0.00,CLR,,0.00,33.0,WeatherDisplay:10.37,2013-10-02 16:33:00,
2013-10-02 11:38:00,66.9,42.4,30.07,WSW,245,3.5,3.5,41,0.00,CLR,,0.00,642.0,WeatherDisplay:10.37,2013-10-02 16:38:00,
2013-10-02 11:43:00,67.5,40.3,30.07,SE,144,1.1,0.0,37,0.00,CLR,,0.00,649.0,WeatherDisplay:10.37,2013-10-02 16:43:00,
2013-10-02 11:48:00,68.1,40.8,30.07,SSE,152,1.1,1.1,37,0.00,CLR,,0.00,652.0,WeatherDisplay:10.37,2013-10-02 16:48:00,
2013-10-02 11:53:00,68.1,40.8,30.07,SSE,152,0.0,0.9,37,0.00,CLR,,0.00,652.0,WeatherDisplay:10.37,2013-10-02 16:53:00,
2013-10-02 11:58:00,68.8,41.5,30.06,SSW,203,0.0,0.4,37,0.00,CLR,,0.00,663.0,WeatherDisplay:10.37,2013-10-02 16:58:00,
2013-10-02 12:03:00,68.1,40.8,30.07,SSE,152,0.0,0.9,37,0.00,CLR,,0.00,652.0,WeatherDisplay:10.37,2013-10-02 17:03:00,
2013-10-02 12:08:00,69.7,41.5,30.06,SSE,156,3.5,3.5,36,0.00,CLR,,0.00,679.0,WeatherDisplay:10.37,2013-10-02 17:08:00,
2013-10-02 12:13:00,68.1,40.8,30.07,SSE,152,0.0,0.9,37,0.00,CLR,,0.00,652.0,WeatherDisplay:10.37,2013-10-02 17:13:00,
2013-10-02 12:18:00,69.8,40.2,30.06,SW,236,3.5,0.0,34,0.00,CLR,,0.00,689.0,WeatherDisplay:10.37,2013-10-02 17:18:00,
2013-10-02 12:23:00,69.9,42.4,30.06,SSE,149,3.5,3.5,37,0.00,CLR,,0.00,691.0,WeatherDisplay:10.37,2013-10-02 17:23:00,
2013-10-02 12:28:00,69.8,40.2,30.06,SW,236,3.5,0.0,34,0.00,CLR,,0.00,689.0,WeatherDisplay:10.37,2013-10-02 17:28:00,
2013-10-02 12:33:00,70.8,40.3,30.06,SSW,205,3.5,3.5,33,0.00,CLR,,0.00,689.0,WeatherDisplay:10.37,2013-10-02 17:33:00,
2013-10-02 12:38:00,69.8,40.2,30.06,SW,236,3.5,0.0,34,0.00,CLR,,0.00,689.0,WeatherDisplay:10.37,2013-10-02 17:38:00,
2013-10-02 12:43:00,70.8,38.7,30.06,SW,217,3.5,3.5,31,0.00,CLR,,0.00,694.0,WeatherDisplay:10.37,2013-10-02 17:43:00,
2013-10-02 12:48:00,69.8,40.2,30.06,SW,236,3.5,0.0,34,0.00,CLR,,0.00,689.0,WeatherDisplay:10.37,2013-10-02 17:48:00,
2013-10-02 12:53:00,71.1,38.9,30.06,SSE,150,3.5,0.0,31,0.00,CLR,,0.00,232.0,WeatherDisplay:10.37,2013-10-02 17:53:00,
2013-10-02 12:58:00,69.8,40.2,30.06,SW,236,3.5,0.0,34,0.00,CLR,,0.00,689.0,WeatherDisplay:10.37,2013-10-02 17:58:00,
2013-10-02 13:03:00,69.8,40.2,30.06,SW,236,3.5,0.0,34,0.00,CLR,,0.00,689.0,WeatherDisplay:10.37,2013-10-02 18:03:00,
2013-10-02 13:08:00,70.7,37.7,30.05,ESE,115,3.5,3.5,30,0.00,CLR,,0.00,98.0,WeatherDisplay:10.37,2013-10-02 18:08:00,
2013-10-02 13:13:00,70.6,38.5,30.05,SSE,155,2.3,2.3,31,0.00,CLR,,0.00,76.0,WeatherDisplay:10.37,2013-10-02 18:13:00,
2013-10-02 13:18:00,70.7,37.7,30.05,ESE,115,0.0,2.4,30,0.00,CLR,,0.00,90.0,WeatherDisplay:10.37,2013-10-02 18:18:00,
2013-10-02 13:23:00,70.3,40.6,30.04,ESE,117,2.3,2.3,34,0.00,CLR,,0.00,65.0,WeatherDisplay:10.37,2013-10-02 18:23:00,
2013-10-02 13:28:00,70.7,37.7,30.05,ESE,115,0.0,2.4,30,0.00,CLR,,0.00,90.0,WeatherDisplay:10.37,2013-10-02 18:28:00,
2013-10-02 13:33:00,70.7,37.7,30.05,ESE,115,0.0,2.4,30,0.00,CLR,,0.00,90.0,WeatherDisplay:10.37,2013-10-02 18:33:00,
2013-10-02 13:38:00,70.7,38.6,30.04,SE,144,2.3,2.3,31,0.00,CLR,,0.00,680.0,WeatherDisplay:10.37,2013-10-02 18:38:00,
2013-10-02 13:43:00,70.7,37.7,30.04,WSW,246,4.6,4.6,30,0.00,CLR,,0.00,290.0,WeatherDisplay:10.37,2013-10-02 18:43:00,
2013-10-02 13:48:00,70.6,39.3,30.04,South,173,5.8,0.0,32,0.00,CLR,,0.00,673.0,WeatherDisplay:10.37,2013-10-02 18:48:00,
2013-10-02 13:53:00,71.4,42.3,30.04,South,174,3.5,3.5,35,0.00,CLR,,0.00,670.0,WeatherDisplay:10.37,2013-10-02 18:53:00,
2013-10-02 13:58:00,70.6,39.3,30.04,South,173,5.8,0.0,32,0.00,CLR,,0.00,673.0,WeatherDisplay:10.37,2013-10-02 18:58:00,
2013-10-02 14:03:00,72.1,38.1,30.04,West,269,4.6,4.6,29,0.00,CLR,,0.00,666.0,WeatherDisplay:10.37,2013-10-02 19:03:00,
2013-10-02 14:08:00,70.6,39.3,30.04,South,173,5.8,0.0,32,0.00,CLR,,0.00,673.0,WeatherDisplay:10.37,2013-10-02 19:08:00,
2013-10-02 14:13:00,72.6,37.6,30.04,South,169,5.8,0.0,28,0.00,CLR,,0.00,649.0,WeatherDisplay:10.37,2013-10-02 19:13:00,
2013-10-02 14:18:00,70.6,39.3,30.04,South,173,5.8,0.0,32,0.00,CLR,,0.00,673.0,WeatherDisplay:10.37,2013-10-02 19:18:00,
2013-10-02 14:23:00,70.6,39.3,30.04,South,173,5.8,0.0,32,0.00,CLR,,0.00,673.0,WeatherDisplay:10.37,2013-10-02 19:23:00,
2013-10-02 14:28:00,72.4,41.7,30.03,East,80,1.1,1.1,33,0.00,CLR,,0.00,79.0,WeatherDisplay:10.37,2013-10-02 19:28:00,
2013-10-02 14:33:00,72.1,36.3,30.02,WSW,241,3.5,0.0,27,0.00,CLR,,0.00,127.0,WeatherDisplay:10.37,2013-10-02 19:33:00,
2013-10-02 14:38:00,70.6,39.3,30.04,South,173,5.8,0.0,32,0.00,CLR,,0.00,673.0,WeatherDisplay:10.37,2013-10-02 19:38:00,
2013-10-02 14:43:00,70.6,39.3,30.04,South,173,5.8,0.0,32,0.00,CLR,,0.00,673.0,WeatherDisplay:10.37,2013-10-02 19:43:00,
2013-10-02 14:48:00,70.6,39.3,30.04,South,173,5.8,0.0,32,0.00,CLR,,0.00,673.0,WeatherDisplay:10.37,2013-10-02 19:48:00,
2013-10-02 14:53:00,70.6,39.3,30.04,South,173,5.8,0.0,32,0.00,CLR,,0.00,673.0,WeatherDisplay:10.37,2013-10-02 19:53:00,
2013-10-02 14:58:00,72.1,36.3,30.01,ESE,102,5.8,6.0,27,0.00,CLR,,0.00,580.0,WeatherDisplay:10.37,2013-10-02 19:58:00,
2013-10-02 15:03:00,72.2,36.3,30.01,ESE,102,0.0,4.6,27,0.00,CLR,,0.00,578.0,WeatherDisplay:10.37,2013-10-02 20:03:00,
2013-10-02 15:08:00,72.2,36.3,30.01,ESE,102,0.0,4.6,27,0.00,CLR,,0.00,578.0,WeatherDisplay:10.37,2013-10-02 20:08:00,
2013-10-02 15:13:00,72.2,36.3,30.01,ESE,102,0.0,4.6,27,0.00,CLR,,0.00,578.0,WeatherDisplay:10.37,2013-10-02 20:13:00,
2013-10-02 15:18:00,72.2,36.3,30.01,ESE,102,0.0,4.6,27,0.00,CLR,,0.00,578.0,WeatherDisplay:10.37,2013-10-02 20:18:00,
2013-10-02 15:23:00,72.2,36.3,30.01,ESE,102,0.0,4.6,27,0.00,CLR,,0.00,578.0,WeatherDisplay:10.37,2013-10-02 20:23:00,
2013-10-02 15:28:00,73.0,42.2,29.99,ESE,119,3.5,3.5,33,0.00,CLR,,0.00,517.0,WeatherDisplay:10.37,2013-10-02 20:28:00,
2013-10-02 15:33:00,73.1,38.0,29.99,ESE,115,3.5,3.5,28,0.00,CLR,,0.00,504.0,WeatherDisplay:10.37,2013-10-02 20:33:00,
2013-10-02 15:38:00,73.4,39.2,29.98,West,264,4.0,4.0,29,0.00,CLR,,0.00,494.0,WeatherDisplay:10.37,2013-10-02 20:38:00,
2013-10-02 15:43:00,72.2,36.3,30.01,ESE,102,0.0,4.6,27,0.00,CLR,,0.00,578.0,WeatherDisplay:10.37,2013-10-02 20:43:00,
2013-10-02 15:48:00,72.2,36.3,30.01,ESE,102,0.0,4.6,27,0.00,CLR,,0.00,578.0,WeatherDisplay:10.37,2013-10-02 20:48:00,
2013-10-02 15:53:00,72.2,36.3,30.01,ESE,102,0.0,4.6,27,0.00,CLR,,0.00,578.0,WeatherDisplay:10.37,2013-10-02 20:53:00,
2013-10-02 15:58:00,73.9,37.8,29.98,SE,132,1.1,2.0,27,0.00,CLR,,0.00,461.0,WeatherDisplay:10.37,2013-10-02 20:58:00,
2013-10-02 16:03:00,73.9,38.7,29.98,SE,136,3.0,3.0,28,0.00,CLR,,0.00,429.0,WeatherDisplay:10.37,2013-10-02 21:03:00,
2013-10-02 16:08:00,73.9,41.3,29.98,SSE,168,1.1,1.4,31,0.00,CLR,,0.00,438.0,WeatherDisplay:10.37,2013-10-02 21:08:00,
2013-10-02 16:13:00,73.9,41.3,29.98,SSE,168,1.1,1.4,31,0.00,CLR,,0.00,438.0,WeatherDisplay:10.37,2013-10-02 21:13:00,
2013-10-02 16:18:00,73.1,37.1,29.98,SSE,163,3.5,0.0,27,0.00,CLR,,0.00,439.0,WeatherDisplay:10.37,2013-10-02 21:18:00,
2013-10-02 16:23:00,72.9,37.9,29.98,SSE,147,2.3,2.3,28,0.00,CLR,,0.00,390.0,WeatherDisplay:10.37,2013-10-02 21:23:00,
2013-10-02 16:29:00,73.1,38.9,29.97,ESE,121,3.5,3.5,29,0.00,CLR,,0.00,369.0,WeatherDisplay:10.37,2013-10-02 21:29:00,
2013-10-02 16:34:00,73.1,37.1,29.97,SE,128,2.3,2.3,27,0.00,CLR,,0.00,343.0,WeatherDisplay:10.37,2013-10-02 21:34:00,
2013-10-02 16:39:00,73.9,41.3,29.98,SSE,168,1.1,1.4,31,0.00,CLR,,0.00,438.0,WeatherDisplay:10.37,2013-10-02 21:39:00,
2013-10-02 16:44:00,73.9,41.3,29.98,SSE,168,1.1,1.4,31,0.00,CLR,,0.00,438.0,WeatherDisplay:10.37,2013-10-02 21:44:00,
2013-10-02 16:49:00,73.2,41.6,29.97,South,178,2.3,2.3,32,0.00,CLR,,0.00,294.0,WeatherDisplay:10.37,2013-10-02 21:49:00,
2013-10-02 16:54:00,73.3,37.3,29.96,SSE,168,3.5,3.5,27,0.00,CLR,,0.00,281.0,WeatherDisplay:10.37,2013-10-02 21:54:00,
2013-10-02 16:59:00,73.9,41.3,29.98,SSE,168,1.1,1.4,31,0.00,CLR,,0.00,438.0,WeatherDisplay:10.37,2013-10-02 21:59:00,
2013-10-02 17:04:00,73.9,41.3,29.98,SSE,168,1.1,1.4,31,0.00,CLR,,0.00,438.0,WeatherDisplay:10.37,2013-10-02 22:04:00,
2013-10-02 17:09:00,73.1,38.9,29.96,South,174,3.5,0.0,29,0.00,CLR,,0.00,28.0,WeatherDisplay:10.37,2013-10-02 22:09:00,
2013-10-02 17:14:00,73.0,38.0,29.96,South,174,1.1,1.1,28,0.00,CLR,,0.00,26.0,WeatherDisplay:10.37,2013-10-02 22:14:00,
2013-10-02 17:19:00,72.0,43.6,29.96,South,174,1.1,1.1,36,0.00,CLR,,0.00,53.0,WeatherDisplay:10.37,2013-10-02 22:19:00,
2013-10-02 17:24:00,71.4,42.3,29.96,South,174,0.0,0.0,35,0.00,CLR,,0.00,47.0,WeatherDisplay:10.37,2013-10-02 22:24:00,
2013-10-02 17:29:00,70.7,40.9,29.96,SSE,167,0.0,0.0,34,0.00,CLR,,0.00,42.0,WeatherDisplay:10.37,2013-10-02 22:29:00,
2013-10-02 17:34:00,70.1,41.2,29.96,SE,145,0.0,0.0,35,0.00,CLR,,0.00,39.0,WeatherDisplay:10.37,2013-10-02 22:34:00,
2013-10-02 17:39:00,69.8,43.7,29.96,SE,145,0.0,0.0,39,0.00,CLR,,0.00,42.0,WeatherDisplay:10.37,2013-10-02 22:39:00,
2013-10-02 17:44:00,73.0,38.0,29.96,South,174,0.0,1.0,28,0.00,CLR,,0.00,26.0,WeatherDisplay:10.37,2013-10-02 22:44:00,
2013-10-02 17:49:00,73.0,38.0,29.96,South,174,0.0,1.0,28,0.00,CLR,,0.00,26.0,WeatherDisplay:10.37,2013-10-02 22:49:00,
2013-10-02 17:54:00,73.0,38.0,29.96,South,174,0.0,1.0,28,0.00,CLR,,0.00,26.0,WeatherDisplay:10.37,2013-10-02 22:54:00,
2013-10-02 17:59:00,73.0,38.0,29.96,South,174,0.0,1.0,28,0.00,CLR,,0.00,26.0,WeatherDisplay:10.37,2013-10-02 22:59:00,
2013-10-02 18:04:00,68.1,42.2,29.95,SSE,159,4.6,4.6,39,0.00,CLR,,0.00,18.0,WeatherDisplay:10.37,2013-10-02 23:04:00,
2013-10-02 18:09:00,67.9,42.7,29.95,SSE,159,1.1,1.1,40,0.00,CLR,,0.00,14.0,WeatherDisplay:10.37,2013-10-02 23:09:00,
2013-10-02 18:14:00,67.6,41.7,29.94,SSE,148,1.1,1.1,39,0.00,CLR,,0.00,11.0,WeatherDisplay:10.37,2013-10-02 23:14:00,
2013-10-02 18:19:00,73.0,38.0,29.96,South,174,0.0,1.0,28,0.00,SCT,,0.00,26.0,WeatherDisplay:10.37,2013-10-02 23:19:00,
2013-10-02 18:24:00,66.2,44.2,29.93,SSE,148,0.0,0.4,45,0.00,SCT,,0.00,0.0,WeatherDisplay:10.37,2013-10-02 23:24:00,
2013-10-02 18:29:00,73.0,38.0,29.96,South,174,0.0,1.0,28,0.00,SCT,,0.00,26.0,WeatherDisplay:10.37,2013-10-02 23:29:00,
2013-10-02 18:34:00,73.0,38.0,29.96,South,174,0.0,1.0,28,0.00,SCT,,0.00,26.0,WeatherDisplay:10.37,2013-10-02 23:34:00,
2013-10-02 18:39:00,73.0,38.0,29.96,South,174,0.0,1.0,28,0.00,SCT,,0.00,26.0,WeatherDisplay:10.37,2013-10-02 23:39:00,
2013-10-02 18:44:00,64.7,45.6,29.94,SSE,148,0.0,0.0,50,0.00,SCT,,0.00,0.0,WeatherDisplay:10.37,2013-10-02 23:44:00,
2013-10-02 18:49:00,64.5,48.0,29.95,SSE,148,0.0,0.0,55,0.00,SCT,,0.00,0.0,WeatherDisplay:10.37,2013-10-02 23:49:00,
2013-10-02 18:54:00,73.0,38.0,29.96,South,174,0.0,1.0,28,0.00,SCT,,0.00,0.0,WeatherDisplay:10.37,2013-10-02 23:54:00,
2013-10-02 18:59:00,64.0,47.0,29.95,SSE,148,0.0,0.0,54,0.00,SCT,,0.00,0.0,WeatherDisplay:10.37,2013-10-02 23:59:00,
2013-10-02 19:04:00,73.0,38.0,29.96,South,174,0.0,1.0,28,0.00,-RA,,0.00,0.0,WeatherDisplay:10.37,2013-10-03 00:04:00,
2013-10-02 19:09:00,63.4,47.9,29.96,SSE,148,0.0,0.0,57,0.00,-RA,,0.00,0.0,WeatherDisplay:10.37,2013-10-03 00:09:00,
2013-10-02 19:14:00,73.0,38.0,29.96,South,174,0.0,1.0,28,0.00,-RA,,0.00,0.0,WeatherDisplay:10.37,2013-10-03 00:14:00,
2013-10-02 19:19:00,63.1,49.0,29.96,SSE,148,1.1,0.0,60,0.00,-RA,,0.00,0.0,WeatherDisplay:10.37,2013-10-03 00:19:00,
2013-10-02 19:24:00,63.0,48.4,29.96,SSE,148,0.0,0.0,59,0.00,-RA,,0.00,0.0,WeatherDisplay:10.37,2013-10-03 00:24:00,
2013-10-02 19:29:00,62.8,48.7,29.97,SSE,148,0.0,0.0,60,0.00,-RA,,0.00,0.0,WeatherDisplay:10.37,2013-10-03 00:29:00,
2013-10-02 19:34:00,73.0,38.0,29.96,South,174,0.0,1.0,28,0.00,-RA,,0.00,0.0,WeatherDisplay:10.37,2013-10-03 00:34:00,
2013-10-02 19:39:00,62.5,47.5,29.98,SSE,148,0.0,0.0,58,0.00,-RA,,0.00,0.0,WeatherDisplay:10.37,2013-10-03 00:39:00,
2013-10-02 19:44:00,62.3,47.8,29.98,SSE,148,0.0,0.0,59,0.00,-RA,,0.00,0.0,WeatherDisplay:10.37,2013-10-03 00:44:00,
2013-10-02 19:49:00,62.5,48.0,29.98,SSE,148,0.0,0.0,59,0.00,-RA,,0.00,0.0,WeatherDisplay:10.37,2013-10-03 00:49:00,
2013-10-02 19:54:00,62.0,45.6,30.03,North,351,3.5,3.5,55,0.00,-RA,,0.00,0.0,WeatherDisplay:10.37,2013-10-03 00:54:00,
2013-10-02 19:59:00,62.5,48.0,29.98,SSE,148,0.0,0.0,59,0.00,-RA,,0.00,0.0,WeatherDisplay:10.37,2013-10-03 00:59:00,
2013-10-02 20:04:00,62.0,51.7,30.04,WNW,290,1.1,1.1,69,0.01,-RA,,0.01,0.0,WeatherDisplay:10.37,2013-10-03 01:04:00,
2013-10-02 20:09:00,62.5,48.0,29.98,SSE,148,0.0,0.0,59,0.00,-RA,,0.00,0.0,WeatherDisplay:10.37,2013-10-03 01:09:00,
2013-10-02 20:14:00,62.5,48.0,29.98,SSE,148,0.0,0.0,59,0.00,-RA,,0.00,0.0,WeatherDisplay:10.37,2013-10-03 01:14:00,
2013-10-02 20:19:00,62.5,48.0,29.98,SSE,148,0.0,0.0,59,0.00,-RA,,0.00,0.0,WeatherDisplay:10.37,2013-10-03 01:19:00,
2013-10-02 20:24:00,57.6,52.8,30.02,WNW,290,0.0,0.0,84,0.03,-RA,,0.03,0.0,WeatherDisplay:10.37,2013-10-03 01:24:00,
2013-10-02 20:29:00,62.5,48.0,29.98,SSE,148,0.0,0.0,59,0.00,-RA,,0.00,0.0,WeatherDisplay:10.37,2013-10-03 01:29:00,
2013-10-02 20:34:00,56.9,52.8,30.01,WNW,290,0.0,0.0,86,0.03,-RA,,0.03,0.0,WeatherDisplay:10.37,2013-10-03 01:34:00,
2013-10-02 20:39:00,56.4,52.9,30.01,WNW,290,0.0,0.0,88,0.03,-RA,,0.03,0.0,WeatherDisplay:10.37,2013-10-03 01:39:00,
2013-10-02 20:44:00,56.2,53.0,30.00,WNW,290,0.0,0.0,89,0.03,-RA,,0.03,0.0,WeatherDisplay:10.37,2013-10-03 01:44:00,
2013-10-02 20:49:00,56.0,52.8,30.00,WNW,290,0.0,0.0,89,0.03,-RA,,0.03,0.0,WeatherDisplay:10.37,2013-10-03 01:49:00,
2013-10-02 20:54:00,55.8,52.9,29.99,WNW,290,0.0,0.0,90,0.03,-RA,,0.03,0.0,WeatherDisplay:10.37,2013-10-03 01:54:00,
2013-10-02 20:59:00,55.9,53.0,30.00,WNW,290,0.0,0.0,90,0.03,-RA,,0.03,0.0,WeatherDisplay:10.37,2013-10-03 01:59:00,
2013-10-02 21:04:00,55.9,53.0,30.00,WNW,290,0.0,0.0,90,0.03,-RA,,0.03,0.0,WeatherDisplay:10.37,2013-10-03 02:04:00,
2013-10-02 21:05:00,55.9,53.0,30.00,WNW,290,0.0,0.0,90,0.03,-RA,,0.03,0.0,WeatherDisplay:10.37,2013-10-03 02:05:00,
2013-10-02 21:10:00,54.8,52.2,29.97,WNW,294,2.3,2.3,91,0.04,-RA,,0.04,0.0,WeatherDisplay:10.37,2013-10-03 02:10:00,
2013-10-02 21:15:00,55.9,53.0,30.00,WNW,290,0.0,0.0,90,0.03,-RA,,0.03,0.0,WeatherDisplay:10.37,2013-10-03 02:15:00,
2013-10-02 21:20:00,55.9,53.0,30.00,WNW,290,0.0,0.0,90,0.03,-RA,,0.03,0.0,WeatherDisplay:10.37,2013-10-03 02:20:00,
2013-10-02 21:25:00,55.9,53.0,30.00,WNW,290,0.0,0.0,90,0.03,-RA,,0.03,0.0,WeatherDisplay:10.37,2013-10-03 02:25:00,
2013-10-02 21:30:00,54.2,51.9,29.98,WNW,294,0.0,0.0,92,0.03,-RA,,0.05,0.0,WeatherDisplay:10.37,2013-10-03 02:30:00,
2013-10-02 21:35:00,54.1,52.1,29.99,WNW,294,0.0,0.0,93,0.03,-RA,,0.05,0.0,WeatherDisplay:10.37,2013-10-03 02:35:00,
2013-10-02 21:40:00,54.1,52.4,29.99,WNW,294,0.0,0.0,94,0.02,-RA,,0.05,0.0,WeatherDisplay:10.37,2013-10-03 02:40:00,
2013-10-02 21:45:00,55.9,53.0,30.00,WNW,290,0.0,0.0,90,0.00,-RA,,0.03,0.0,WeatherDisplay:10.37,2013-10-03 02:45:00,
2013-10-02 21:50:00,54.0,52.0,29.99,NW,308,1.1,1.1,93,0.04,-RA,,0.08,0.0,WeatherDisplay:10.37,2013-10-03 02:50:00,
2013-10-02 21:55:00,55.9,53.0,30.00,WNW,290,0.0,0.0,90,0.00,-RA,,0.03,0.0,WeatherDisplay:10.37,2013-10-03 02:55:00,
2013-10-02 22:00:00,53.7,51.7,29.98,NNW,329,0.0,0.0,93,0.05,-RA,,0.08,0.0,WeatherDisplay:10.37,2013-10-03 03:00:00,
2013-10-02 22:05:00,55.9,53.0,30.00,WNW,290,0.0,0.0,90,0.00,OVC,,0.03,0.0,WeatherDisplay:10.37,2013-10-03 03:05:00,
2013-10-02 22:10:00,55.9,53.0,30.00,WNW,290,0.0,0.0,90,0.00,OVC,,0.03,0.0,WeatherDisplay:10.37,2013-10-03 03:10:00,
2013-10-02 22:15:00,53.6,51.9,30.01,SW,229,0.0,0.1,94,0.05,RA,,0.09,0.0,WeatherDisplay:10.37,2013-10-03 03:15:00,
2013-10-02 22:20:00,55.9,53.0,30.00,WNW,290,0.0,0.0,90,0.00,OVC,,0.03,0.0,WeatherDisplay:10.37,2013-10-03 03:20:00,
2013-10-02 22:25:00,55.9,53.0,30.00,WNW,290,0.0,0.0,90,0.00,OVC,,0.03,0.0,WeatherDisplay:10.37,2013-10-03 03:25:00,
2013-10-02 22:30:00,55.9,53.0,30.00,WNW,290,0.0,0.0,90,0.00,OVC,,0.03,0.0,WeatherDisplay:10.37,2013-10-03 03:30:00,
2013-10-02 22:35:00,55.9,53.0,30.00,WNW,290,0.0,0.0,90,0.00,OVC,,0.03,0.0,WeatherDisplay:10.37,2013-10-03 03:35:00,
2013-10-02 22:40:00,55.9,53.0,30.00,WNW,290,0.0,0.0,90,0.00,OVC,,0.03,0.0,WeatherDisplay:10.37,2013-10-03 03:40:00,
2013-10-02 22:45:00,53.4,51.7,30.00,ENE,59,0.0,0.0,94,0.05,RA,,0.10,0.0,WeatherDisplay:10.37,2013-10-03 03:45:00,
2013-10-02 22:50:00,53.4,52.0,30.00,ENE,59,1.1,0.0,95,0.06,RA,,0.11,0.0,WeatherDisplay:10.37,2013-10-03 03:50:00,
2013-10-02 22:55:00,53.3,51.9,30.00,ENE,59,0.0,0.0,95,0.08,RA,,0.11,0.0,WeatherDisplay:10.37,2013-10-03 03:55:00,
2013-10-02 23:01:00,53.3,51.9,30.00,ENE,59,0.0,0.0,95,0.08,RA,,0.11,0.0,WeatherDisplay:10.37,2013-10-03 04:01:00,
2013-10-02 23:06:00,53.2,51.8,30.00,ENE,59,1.1,0.0,95,0.04,RA,,0.12,0.0,WeatherDisplay:10.37,2013-10-03 04:06:00,
2013-10-02 23:11:00,53.2,51.8,30.00,ENE,59,0.0,0.1,95,0.05,RA,,0.13,0.0,WeatherDisplay:10.37,2013-10-03 04:11:00,
2013-10-02 23:16:00,53.2,51.8,30.00,ENE,59,0.0,0.1,95,0.06,RA,,0.14,0.0,WeatherDisplay:10.37,2013-10-03 04:16:00,
2013-10-02 23:21:00,53.3,51.9,30.00,ENE,59,0.0,0.0,95,0.08,OVC,,0.11,0.0,WeatherDisplay:10.37,2013-10-03 04:21:00,
2013-10-02 23:27:00,53.3,51.9,30.00,ENE,59,0.0,0.0,95,0.08,OVC,,0.11,0.0,WeatherDisplay:10.37,2013-10-03 04:27:00,
2013-10-02 23:32:00,53.3,51.9,30.00,ENE,59,0.0,0.0,95,0.08,OVC,,0.11,0.0,WeatherDisplay:10.37,2013-10-03 04:32:00,
2013-10-02 23:37:00,53.3,51.9,30.00,ENE,59,0.0,0.0,95,0.08,OVC,,0.11,0.0,WeatherDisplay:10.37,2013-10-03 04:37:00,
2013-10-02 23:42:00,53.3,51.9,30.00,ENE,59,0.0,0.0,95,0.08,OVC,,0.11,0.0,WeatherDisplay:10.37,2013-10-03 04:42:00,
2013-10-02 23:47:00,53.3,51.9,30.00,ENE,59,0.0,0.0,95,0.08,OVC,,0.11,0.0,WeatherDisplay:10.37,2013-10-03 04:47:00,
2013-10-02 23:52:00,53.3,51.9,30.00,ENE,59,0.0,0.0,95,0.08,OVC,,0.11,0.0,WeatherDisplay:10.37,2013-10-03 04:52:00,
2013-10-02 23:57:00,53.3,51.9,30.00,ENE,59,0.0,0.0,95,0.08,OVC,,0.11,0.0,WeatherDisplay:10.37,2013-10-03 04:57:00,